EWG5593 ENBR-ENZV

Flight info

Callsign EWG5593
Flight time 0h 24m
Altitude 17000
Route BEGOD
Aircraft A320/M-SDE3FGHIRWY/LB1

Departure

Time 2026-05-06 17:32
Airport Bergen Airport, Flesland (ENBR)

Arrival

Time 2026-05-06 17:57
Airport Stavanger Airport, Sola (ENZV)
Time Latitude Longitude Altitude Speed Heading
2026-05-06 16:54 60.29001 5.22705 151 ft 0 kts 210°
2026-05-06 17:15 60.29010 5.22715 151 ft 3 kts 211°
2026-05-06 17:15 60.29027 5.22737 151 ft 3 kts 218°
2026-05-06 17:15 60.29041 5.22764 151 ft 3 kts 245°
2026-05-06 17:16 60.29045 5.22790 151 ft 1 kts 279°
2026-05-06 17:16 60.29044 5.22792 151 ft 0 kts 279°
2026-05-06 17:19 60.29045 5.22792 151 ft 1 kts 279°
2026-05-06 17:19 60.29050 5.22732 151 ft 8 kts 278°
2026-05-06 17:19 60.29046 5.22595 152 ft 10 kts 261°
2026-05-06 17:19 60.29039 5.22501 152 ft 3 kts 261°
2026-05-06 17:20 60.29037 5.22471 152 ft 0 kts 263°
2026-05-06 17:20 60.29036 5.22464 152 ft 3 kts 263°
2026-05-06 17:20 60.29058 5.22360 152 ft 12 kts 326°
2026-05-06 17:21 60.29094 5.22244 152 ft 9 kts 321°
2026-05-06 17:21 60.29144 5.22206 153 ft 7 kts 351°
2026-05-06 17:21 60.29202 5.22186 153 ft 12 kts 350°
2026-05-06 17:21 60.29280 5.22159 154 ft 10 kts 350°
2026-05-06 17:22 60.29346 5.22135 154 ft 9 kts 350°
2026-05-06 17:22 60.29450 5.22103 155 ft 22 kts 352°
2026-05-06 17:22 60.29604 5.22053 157 ft 22 kts 351°
2026-05-06 17:22 60.29755 5.21999 158 ft 22 kts 349°
2026-05-06 17:23 60.29906 5.21947 159 ft 23 kts 351°
2026-05-06 17:23 60.30071 5.21892 161 ft 25 kts 351°
2026-05-06 17:23 60.30239 5.21835 162 ft 24 kts 346°
2026-05-06 17:23 60.30371 5.21790 163 ft 12 kts 351°
2026-05-06 17:24 60.30446 5.21766 164 ft 10 kts 351°
2026-05-06 17:24 60.30479 5.21755 164 ft 0 kts 350°
2026-05-06 17:25 60.30486 5.21753 164 ft 4 kts 350°
2026-05-06 17:25 60.30509 5.21745 164 ft 3 kts 350°
2026-05-06 17:25 60.30525 5.21740 164 ft 4 kts 350°
2026-05-06 17:25 60.30556 5.21730 165 ft 4 kts 350°
2026-05-06 17:26 60.30579 5.21722 165 ft 2 kts 350°
2026-05-06 17:26 60.30580 5.21721 165 ft 0 kts 350°
2026-05-06 17:27 60.30587 5.21719 165 ft 4 kts 350°
2026-05-06 17:27 60.30627 5.21704 165 ft 5 kts 346°
2026-05-06 17:27 60.30640 5.21692 166 ft 0 kts 331°
2026-05-06 17:29 60.30651 5.21675 166 ft 7 kts 319°
2026-05-06 17:29 60.30663 5.21597 166 ft 5 kts 269°
2026-05-06 17:30 60.30661 5.21569 166 ft 0 kts 262°
2026-05-06 17:31 60.30657 5.21516 166 ft 6 kts 262°
2026-05-06 17:31 60.30645 5.21419 168 ft 9 kts 238°
2026-05-06 17:31 60.30577 5.21403 167 ft 7 kts 171°
2026-05-06 17:31 60.30575 5.21404 167 ft 1 kts 171°
2026-05-06 17:32 60.30523 5.21421 164 ft 31 kts 171°
2026-05-06 17:32 60.30030 5.21586 162 ft 107 kts 171°
2026-05-06 17:32 60.29102 5.21926 252 ft 150 kts 170°
2026-05-06 17:32 60.28132 5.22228 956 ft 143 kts 176°
2026-05-06 17:33 60.27129 5.22518 1501 ft 151 kts 176°
2026-05-06 17:33 60.26045 5.22826 1888 ft 168 kts 175°
2026-05-06 17:33 60.24800 5.23216 2288 ft 188 kts 173°
2026-05-06 17:33 60.23448 5.23687 2634 ft 213 kts 173°
2026-05-06 17:34 60.21896 5.24229 2954 ft 243 kts 172°
2026-05-06 17:34 60.20154 5.24843 3647 ft 260 kts 172°
2026-05-06 17:34 60.18322 5.25489 4626 ft 266 kts 172°
2026-05-06 17:34 60.16516 5.26117 5582 ft 272 kts 172°
2026-05-06 17:35 60.14646 5.26749 5893 ft 272 kts 173°
2026-05-06 17:35 60.12773 5.27375 5994 ft 272 kts 173°
2026-05-06 17:35 60.10900 5.27988 6002 ft 272 kts 174°
2026-05-06 17:36 60.07200 5.27385 6002 ft 267 kts 197°
2026-05-06 17:36 60.05383 5.26457 6219 ft 277 kts 197°
2026-05-06 17:36 60.03516 5.25515 7281 ft 276 kts 197°
2026-05-06 17:36 60.01640 5.24576 8312 ft 279 kts 197°
2026-05-06 17:37 59.99746 5.23630 9282 ft 283 kts 197°
2026-05-06 17:37 59.97819 5.22672 10182 ft 289 kts 198°
2026-05-06 17:37 59.95796 5.21659 10591 ft 312 kts 198°
2026-05-06 17:37 59.93618 5.20563 10978 ft 332 kts 198°
2026-05-06 17:38 59.92122 5.19814 11466 ft 337 kts 198°
2026-05-06 17:38 59.89835 5.18679 12309 ft 340 kts 199°
2026-05-06 17:38 59.87523 5.17541 13204 ft 343 kts 199°
2026-05-06 17:38 59.85199 5.16400 14063 ft 345 kts 200°
2026-05-06 17:39 59.82858 5.15243 14743 ft 348 kts 200°
2026-05-06 17:39 59.80496 5.14112 14991 ft 350 kts 198°
2026-05-06 17:39 59.78049 5.13624 15024 ft 357 kts 186°
2026-05-06 17:39 59.75565 5.13949 15060 ft 359 kts 181°
2026-05-06 17:40 59.73077 5.14373 15053 ft 358 kts 181°
2026-05-06 17:40 59.70630 5.14785 15059 ft 358 kts 181°
2026-05-06 17:40 59.68175 5.15189 15056 ft 358 kts 181°
2026-05-06 17:40 59.65688 5.15597 15055 ft 358 kts 181°
2026-05-06 17:41 59.63209 5.16000 15064 ft 358 kts 182°
2026-05-06 17:41 59.60718 5.16404 15052 ft 358 kts 181°
2026-05-06 17:41 59.58238 5.16812 15053 ft 358 kts 181°
2026-05-06 17:41 59.55752 5.17227 15052 ft 358 kts 181°
2026-05-06 17:42 59.53266 5.17634 15054 ft 358 kts 181°
2026-05-06 17:42 59.50783 5.18041 15067 ft 358 kts 181°
2026-05-06 17:42 59.48298 5.18451 15037 ft 358 kts 181°
2026-05-06 17:42 59.45819 5.18859 15053 ft 358 kts 181°
2026-05-06 17:43 59.43332 5.19265 15055 ft 358 kts 181°
2026-05-06 17:43 59.40852 5.19671 15013 ft 355 kts 181°
2026-05-06 17:43 59.38429 5.19980 14561 ft 350 kts 183°
2026-05-06 17:43 59.35994 5.20106 14066 ft 347 kts 185°
2026-05-06 17:44 59.33586 5.20132 13540 ft 345 kts 185°
2026-05-06 17:44 59.31302 5.20128 13018 ft 343 kts 185°
2026-05-06 17:44 59.28921 5.20133 12472 ft 341 kts 184°
2026-05-06 17:44 59.26550 5.20159 11923 ft 340 kts 184°
2026-05-06 17:45 59.24193 5.20198 11381 ft 338 kts 183°
2026-05-06 17:45 59.21839 5.20246 10841 ft 337 kts 182°
2026-05-06 17:45 59.19504 5.20304 10320 ft 333 kts 182°
2026-05-06 17:45 59.17227 5.20373 9755 ft 318 kts 182°
2026-05-06 17:46 59.15102 5.20441 9531 ft 295 kts 182°
2026-05-06 17:46 59.13087 5.20500 8940 ft 287 kts 182°
2026-05-06 17:46 59.11101 5.20554 8243 ft 284 kts 181°
2026-05-06 17:46 59.09140 5.20734 7525 ft 283 kts 171°
2026-05-06 17:47 59.07282 5.21947 6813 ft 282 kts 158°
2026-05-06 17:47 59.05470 5.23417 6200 ft 283 kts 157°
2026-05-06 17:47 59.03667 5.24900 5798 ft 280 kts 157°
2026-05-06 17:47 59.01885 5.26371 5384 ft 277 kts 157°
2026-05-06 17:48 59.00126 5.27818 4975 ft 275 kts 157°
2026-05-06 17:48 58.98396 5.29233 4511 ft 274 kts 156°
2026-05-06 17:48 58.96642 5.30662 4053 ft 273 kts 156°
2026-05-06 17:48 58.94889 5.32085 3600 ft 272 kts 156°
2026-05-06 17:49 58.93148 5.33495 3147 ft 271 kts 156°
2026-05-06 17:49 58.91440 5.34883 2995 ft 271 kts 156°
2026-05-06 17:49 58.89688 5.36313 3004 ft 276 kts 156°
2026-05-06 17:49 58.87912 5.37761 3008 ft 276 kts 156°
2026-05-06 17:50 58.86138 5.39203 3009 ft 276 kts 156°
2026-05-06 17:50 58.84366 5.40639 3008 ft 275 kts 156°
2026-05-06 17:50 58.82606 5.42060 3009 ft 273 kts 156°
2026-05-06 17:50 58.80852 5.43474 3009 ft 274 kts 156°
2026-05-06 17:51 58.79078 5.44900 3011 ft 276 kts 156°
2026-05-06 17:51 58.77307 5.46323 3010 ft 275 kts 156°
2026-05-06 17:51 58.75601 5.47759 3011 ft 275 kts 149°
2026-05-06 17:51 58.74083 5.49946 3017 ft 269 kts 133°
2026-05-06 17:52 58.72816 5.52415 3007 ft 249 kts 127°
2026-05-06 17:52 58.72025 5.55174 2972 ft 226 kts 100°
2026-05-06 17:52 58.71913 5.58010 2907 ft 208 kts 77°
2026-05-06 17:52 58.72339 5.60525 2870 ft 190 kts 55°
2026-05-06 17:53 58.73137 5.62438 2776 ft 179 kts 35°
2026-05-06 17:53 58.74172 5.63664 2635 ft 172 kts 18°
2026-05-06 17:53 58.75322 5.64146 2431 ft 169 kts 359°
2026-05-06 17:53 58.76501 5.64119 2218 ft 169 kts 358°
2026-05-06 17:54 58.77682 5.64082 1991 ft 169 kts 358°
2026-05-06 17:54 58.78850 5.64048 1767 ft 165 kts 357°
2026-05-06 17:54 58.79946 5.64016 1538 ft 152 kts 357°
2026-05-06 17:54 58.80937 5.63987 1332 ft 134 kts 358°
2026-05-06 17:55 58.81840 5.63960 1136 ft 127 kts 357°
2026-05-06 17:55 58.82710 5.63932 897 ft 124 kts 356°
2026-05-06 17:55 58.83561 5.63910 778 ft 122 kts 357°
2026-05-06 17:55 58.84408 5.63882 644 ft 120 kts 355°
2026-05-06 17:56 58.85277 5.63846 427 ft 129 kts 355°
2026-05-06 17:56 58.86166 5.63817 271 ft 125 kts 355°
2026-05-06 17:56 58.87012 5.63805 108 ft 119 kts 355°
2026-05-06 17:56 58.87786 5.63795 44 ft 103 kts 355°
2026-05-06 17:57 58.88366 5.63758 37 ft 59 kts 355°
2026-05-06 17:57 58.88610 5.63754 32 ft 14 kts 359°
2026-05-06 17:57 58.88704 5.63687 31 ft 18 kts 300°
2026-05-06 17:57 58.88713 5.63504 31 ft 0 kts 270°
2026-05-06 17:58 58.88713 5.63501 31 ft 2 kts 270°
2026-05-06 17:58 58.88683 5.63431 31 ft 13 kts 207°
2026-05-06 17:59 58.88574 5.63420 32 ft 16 kts 179°
2026-05-06 17:59 58.88470 5.63425 33 ft 14 kts 178°
2026-05-06 17:59 58.88376 5.63430 34 ft 13 kts 179°
2026-05-06 17:59 58.88296 5.63407 35 ft 11 kts 212°
2026-05-06 18:00 58.88255 5.63306 35 ft 9 kts 208°
2026-05-06 18:00 58.88201 5.63303 36 ft 7 kts 179°
2026-05-06 18:00 58.88167 5.63275 34 ft 4 kts 195°
2026-05-06 18:00 58.88134 5.63258 36 ft 9 kts 194°
2026-05-06 18:01 58.88108 5.63176 37 ft 7 kts 315°
2026-05-06 18:01 58.88144 5.63099 35 ft 7 kts 315°
2026-05-06 18:01 58.88157 5.63076 36 ft 1 kts 315°
2026-05-06 18:01 58.88162 5.63065 36 ft 0 kts 315°
2026-05-06 18:02 58.88163 5.63064 36 ft 0 kts 315°